Overview Statistics Trail Chart Weather Telemetry Raw packets
 

This is the latest recevied weather packets stored in our database for station/object KC5DAQ-26. If no packets are shown the sender has not sent any weather packets the latest 10 day(s).

<< 461 462 463 464 465 466 467 >>
Time Temp. Humidity Pressure Rain* Wind** Luminosity Snow
1787951609 32.78° C 68% 1017.4 hPa 0 mm - 165 W/m² -
1787951545 33.33° C 67% 1017.5 hPa 0 mm - 158 W/m² -
1787951484 33.33° C 66% 1017.6 hPa 0 mm - 155 W/m² -
1787951424 33.89° C 67% 1017.6 hPa 0 mm - 215 W/m² -
1787951364 33.89° C 65% 1017.7 hPa 0 mm - 665 W/m² -
1787951302 33.89° C 68% 1017.5 hPa 0 mm - 703 W/m² -
1787951240 33.89° C 67% 1017.6 hPa 0 mm - 770 W/m² -
1787951179 33.89° C 68% 1017.7 hPa 0 mm - 797 W/m² -
1787951117 33.89° C 68% 1017.8 hPa 0 mm - 839 W/m² -
1787951056 33.33° C 66% 1017.8 hPa 0 mm - 849 W/m² -
1787950995 33.33° C 67% 1018 hPa 0 mm - 858 W/m² -
1787950933 33.33° C 67% 1017.9 hPa 0 mm - 874 W/m² -
1787950872 33.33° C 68% 1018 hPa 0 mm - 798 W/m² -
1787950810 32.78° C 68% 1018 hPa 0 mm - 584 W/m² -
1787950749 32.78° C 68% 1018 hPa 0 mm - 436 W/m² -
1787950688 33.33° C 69% 1018 hPa 0 mm - 246 W/m² -
1787950623 33.33° C 69% 1018.2 hPa 0 mm - 243 W/m² -
1787950563 33.33° C 69% 1018.2 hPa 0 mm - 243 W/m² -
1787950510 33.33° C 67% 1018.2 hPa 0 mm - 183 W/m² -
1787950443 33.33° C 68% 1018.2 hPa 0 mm - 171 W/m² -
1787950382 33.33° C 68% 1018.2 hPa 0 mm - 164 W/m² -
1787950323 33.33° C 70% 1018.2 hPa 0 mm - 158 W/m² -
1787950262 33.33° C 69% 1018.2 hPa 0 mm - 160 W/m² -
1787950203 33.33° C 68% 1018.2 hPa 0 mm - 167 W/m² -
1787950143 33.89° C 67% 1018.1 hPa 0 mm - 234 W/m² -

* Rain latest hour (hover to see other rain measurements)
** Current wind speed in m/s (hover to see current wind gust speed)